Showing default

COSMOS 249, 3504

Orbit data source: Space-Track

COSMOS 249, 3504 is a payload satellite owned by PKO (CIS) in LEO that was launched on Sun, 20 Oct 1968 UTC via a TSIKLON-2A launch vehicle from the Tyuratam Missile And Space Complex (TTMTR). Payload-class satellites include a variety of spacecraft equipped with specific instruments for various scientific and technological missions. These include communications satellites like Starlink; space stations such as the ISS; scientific satellites like the Hubble; Earth observation satellites from companies like Planet Labs, Umbra, and HawkEye 360; GPS; miniature CubeSats for education and research; and military/defense satellites.

Loading next visibility...
Identifier
3504, 1968-091A
Orbit
LEO
Last TLE update
21 hours ago
Origin
Manufacturer
TSKBM/KB1
Mission
Defense Weapon
Bus & Motor
IS, Unknown motor
Mass
1,400 kg wet, ~1,400 kg dry
Launch date (UTC)
1968-10-20 (57 years ago)
Launch vehicle
TSIKLON-2A
Launch site
Tyuratam Missile And Space Complex (TTMTR)
Object type
Payload
Rocket body
Debris
Shape & HBR
Cyl, 4 m
Radar Cross Section
5.596 m², Large (>1 m²)

Expand to show TLE details & history

TLE from 21 hours ago
0 COSMOS 249
1  3504U 68091A   25128.48016245  .00000117  00000-0  75618-4 0  9994
2  3504  62.3553 199.9191 0981852 298.0590  52.4501 12.96904020667619
Epoch: 2025-05-08T11:31Z
Definitive object data (Epoch: 2025-05-08T11:31:26.035Z)
Latitude
0.00001°
Longitude
160.51057°
Altitude
868.645 km
Speed
7.613 km/s
True Right ascension
13h 19m 40s
True Declination
0° 00' 00"
Sunlit
Object was in full shadow at TLE epoch
Visualization TLE readout
Latitude
45.57616°
Longitude
-169.49946°
Altitude
1,538.809 km
Speed
6.98 km/s
Apparent Right ascension
11h 32m 27s
Apparent Declination
46° 34' 25"
Sunlit
Object is in daylight
Visualization observer readout
Local Sidereal Time
16:18:05
Azimuth
302.581° NW
Elevation
39.356°
Doppler factor
1
Orbital elements
Apogee altitude
2,024.465 km
Perigee altitude
521.966 km
Semi-major axis
7,651.352 km
Eccentricity
0.0981852
Inclination
62.3553°
RAAN
199.9191°
Arg. of periapsis
298.059°
True anomaly
62.04349°
Mean anomaly
52.4501°
Eccentric anomaly
57.1776°
Mean motion
3.24292 °/min
BSTAR
0.000075618
Orbital period
111.01 mins
Loading maneuver chart data...
Loading SW <> Apogee altitude chart data...

COSMOS 249 Visibility forecast

Observer location: undefined°, undefined°

Span
Click to sort rows by Start time (UTC) header in descending order
Start Az.
Max El. time (UTC)
Max El. Az.
Max El.
End time (UTC)
End Az.
11 mins2025-05-09 08:08:58.304Z302.275° NW2025-05-09 08:10:58.304Z330.363° NNW33.532°2025-05-09 08:19:58.304Z29.613° NE
14 mins2025-05-09 10:02:58.304Z308.324° NW2025-05-09 10:08:58.304Z348.45° N21.24°2025-05-09 10:16:58.304Z35.055° NE
16 mins2025-05-09 12:01:58.304Z333.153° NNW2025-05-09 12:08:58.304Z16.654° NNE23.999°2025-05-09 12:17:58.304Z68.747° E
20 mins2025-05-09 13:57:58.304Z331.383° NNW2025-05-09 14:07:58.304Z45.673° ENE39.047°2025-05-09 14:17:58.304Z117.371° SE
20 mins2025-05-09 15:53:58.304Z316.077° NNW2025-05-09 16:03:58.304Z240.027° WSW40.351°2025-05-09 16:13:58.304Z170.385° S
6 mins2025-05-09 17:53:58.304Z278.484° WNW2025-05-09 17:56:58.304Z262.55° W12.811°2025-05-09 17:59:58.304Z246.182° WSW
7 mins2025-05-10 04:22:58.304Z118.657° SE2025-05-10 04:25:58.304Z94.119° ESE14.376°2025-05-10 04:29:58.304Z67.609° E
15 mins2025-05-10 06:12:58.304Z203.945° SW2025-05-10 06:18:58.304Z88.232° E44.087°2025-05-10 06:27:58.304Z37.854° NE
|